{"data":{"norad_id":66531,"intl_designator":"2025-265R","name":"STARLINK-35960","alt_names":[],"object_type":"PAYLOAD","status":"ACTIVE","operator":null,"country":"US","launch_date":"2025-11-19","launch_site_code":"AFETR","launch_vehicle":null,"mission":null,"orbit_class":"UNKNOWN","rcs_meters":null,"size_class":null,"mass_kg":null,"dimensions":null,"purposes":["comms"],"wikipedia_slug":null,"has_3d_model":false,"image_url":null,"decayed_at":null,"tle_current":{"epoch":"2026-05-24T15:28:43.425984Z","epoch_age_seconds":95908,"freshness":"FRESH","line1":"1 66531U 25265R   26144.64494706  .00006227  00000+0  23563-3 0  9996","line2":"2 66531  43.0000 208.6508 0001776 246.9610 113.1054 15.27578698 28731","mean_motion":15.27578698,"eccentricity":0.0001776,"inclination_deg":43,"raan_deg":208.6508,"arg_perigee_deg":246.961,"mean_anomaly_deg":113.1054,"bstar":0.00023563,"rev_number":2873,"period_min":94.266829059959,"perigee_km":481.83444735576,"apogee_km":484.27154204187,"semimajor_km":6861.1899946988,"source":"CELESTRAK","updated_at":"2026-05-25T13:38:21.252435Z"}}}